COSMOS 2491 DEB, 45172

Orbit data source: Space-Track

COSMOS 2491 DEB, 45172 is space debris in LEO originally from a launch on Wed, 25 Dec 2013 UTC launched from the Plesetsk Missile And Space Complex (PKMTR). Debris objects in space refer to the collection of defunct objects orbiting the Earth. Examples of debris include non-operational satellites, rocket bodies, and fragments generated from explosions, collisions, or faulty payload assembly.

Loading next visibility...
COSMOS 2491 DEB details
Identifier
45172, 2013-076AD
Orbit
LEO
Last TLE update3 days ago
Origin
Flag of CISTsNIIKhM (CIS)
ManufacturerTsNIIKhM
MissionSpacecraft
Bus & MotorUnknown
MassUnknown
Launch date (UTC)
2013-12-25 (11 years ago)
Launch vehicleUnknown
Launch site
Plesetsk Missile And Space Complex (PKMTR)
Object type
Payload
Rocket body
Debris
Shape & HBRUnknown
Radar Cross SectionSmall (<0.1 m²)

Expand to show TLE details & history

TLE from 3 days ago
0 COSMOS 2491 DEB
1 45172U 13076AD  25021.45990687  .00003928  00000-0  19970-1 0  9993
2 45172  82.4559  85.2328 0151916 227.3841 131.4359 12.65810568229463
Epoch: 2025-01-21T11:02Z
Definitive object data (Epoch: 2025-01-21T11:02:15.953Z)
Latitude-0.00006°
Longitude158.6005°
Altitude1,480.98 km
Speed7.087 km/s
True Right ascension05h 40m 55s
True Declination0° 00' 00"
Sunlit
Object was in full shadow at TLE epoch
Visualization TLE readout
Latitude-50.57118°
Longitude-14.22353°
Altitude1,302.334 km
Speed7.258 km/s
Apparent Right ascension22h 50m 54s
Apparent Declination-71° 33' 27"
Sunlit
Object is in daylight
Visualization observer readout
Local Sidereal Time15:30:33
Azimuth155.695° SSE
Elevation-43.793°
Doppler factor1
Orbital elements
Apogee altitude1,514.48 km
Perigee altitude1,278.265 km
Semi-major axis7,774.509 km
Eccentricity0.0151916
Inclination82.4559°
RAAN85.2328°
Arg. of periapsis227.3841°
True anomaly132.72468°
Mean anomaly131.4359°
Eccentric anomaly132.08191°
Mean motion3.16617 °/min
BSTAR0.01997
Orbital period113.7 mins
Loading maneuver chart data...
Loading historical data...
Loading historical data...
Loading historical data...
Loading historical data...
Loading historical data...
Loading historical data...
Loading historical data...

COSMOS 2491 DEB Visibility forecast

Observer location: undefined°, undefined

Span
Click to sort rows by Start time (UTC) header in descending order
Start Az.
Max El. time (UTC)
Max El. Az.
Max El.
End time (UTC)
End Az.
15 mins2025-01-24 15:32:24.600Z355.161° N2025-01-24 15:40:24.600Z118.541° SE44.108°2025-01-24 15:47:24.600Z168.157° S
9 mins2025-01-24 17:29:24.600Z314.879° NW2025-01-24 17:33:24.600Z282.237° WNW18.345°2025-01-24 17:38:24.600Z241.876° WSW
6 mins2025-01-25 02:29:24.600Z90.793° ESE2025-01-25 02:31:24.600Z76.343° E13.731°2025-01-25 02:35:24.600Z48.623° ENE
16 mins2025-01-25 04:17:24.600Z176.939° S2025-01-25 04:24:24.600Z113.807° SE44.151°2025-01-25 04:33:24.600Z10.859° NNE
11 mins2025-01-25 06:15:24.600Z253.97° W2025-01-25 06:20:24.600Z295.026° NW21.811°2025-01-25 06:26:24.600Z341.084° N
|